Location: *
(60.1759°S, 155.0663°W)
Time: 14:40:04
(UTC+00:00)

Cosmos 2333 Rocket - Pass Details

Date: 17 September 2019
Orbit: 840 x 862 km, 70.8° (Epoch: 15 October)

Event Time Altitude Azimuth Distance (km) Brightness Sun altitude
Rises 15:21:15 0° 227° (SW) 3,474 5.0 -8.5°
Reaches altitude 10° 15:23:49 10° 221° (SW) 2,532 4.4 -8.2°
Maximum altitude 15:29:29 50° 145° (SE) 1,102 3.2 -7.5°
Drops below altitude 10° 15:35:05 10° 70° (ENE) 2,503 5.8 -6.8°
Sets 15:37:37 0° 64° (ENE) 3,431 6.4 -6.5°
